カタログに戻る

CZ-4C DEB

運用中SSO
NORAD 37568·DEBRIS·🇨🇳 China

打ち上げ Aug 9, 2010 から Taiyuan Satellite Launch Center

Loading…

次のパス (今後24時間)

TLE

最新Source: Space-Track

元期: Sep 13, 2026, 17:04 UTC

1 37568U 10038D   26256.71156881  .00003251  00000-0  41037-3 0  9998
2 37568  97.9570 350.7998 0115116 342.4892  17.2363 14.78034141848865

AllMySatでCZ-4C DEBをリアルタイム追跡

Download on the App Store